FW4628 Weather Reports


Display with metric or nautical units.
time (UTC)temp
F
wind
direction
speed
MPH
gust
MPH
rain 1hr
in
rain 24hr
in
rain mn
in
humidity
%
barometer
mb
20260509153909 55 17 0.0 0.0 0.00 0.00 0.00 100 1011.2
20260509153545 54 35 0.0 0.0 0.00 0.00 0.00 100 1011.2
20260509153402 54 63 0.0 0.0 0.00 0.00 0.00 100 1011.3
20260509153021 54 26 0.0 0.0 0.00 0.00 0.00 100 1011.3
20260509152928 54 45 0.0 0.0 0.00 0.00 0.00 100 1011.4
20260509152533 54 15 0.0 0.0 0.00 0.00 0.00 100 1011.4
20260509045053 62 360 0.0 0.0 0.00 0.00 0.00 55 1012.2
20260509044913 62 26 0.0 0.0 0.00 0.00 0.00 55 1012.2
20260509044529 62 13 0.0 0.0 0.00 0.00 0.00 55 1012.2
20260509044409 63 360 0.0 0.0 0.00 0.00 0.00 55 1012.2
20260509044057 62 24 0.0 0.0 0.00 0.00 0.00 55 1012.1
20260509043901 63 14 0.0 0.0 0.00 0.00 0.00 55 1012.1
20260509043527 63 19 0.0 0.0 0.00 0.00 0.00 55 1012.1
20260509043441 63 360 0.0 0.0 0.00 0.00 0.00 55 1012.1
20260509043046 63 5 0.0 0.0 0.00 0.00 0.00 55 1012.0
20260509042914 63 43 0.0 0.0 0.00 0.00 0.00 55 1012.0
20260509042517 63 19 0.0 0.0 0.00 0.00 0.00 55 1012.0
20260509042416 64 27 0.0 0.0 0.00 0.00 0.00 55 1012.0
20260509042055 63 22 0.0 0.0 0.00 0.00 0.00 55 1012.0
20260509041919 64 5 0.0 0.0 0.00 0.00 0.00 55 1012.0
20260509041535 64 330 0.0 0.0 0.00 0.00 0.00 54 1011.9
20260509041410 64 360 0.0 0.0 0.00 0.00 0.00 54 1011.9
20260509041056 64 30 0.0 0.0 0.00 0.00 0.00 54 1011.9
20260509040902 64 360 0.0 0.0 0.00 0.00 0.00 54 1011.9
20260509040528 64 10 0.0 0.0 0.00 0.00 0.00 54 1011.8
20260509040422 65 360 0.0 0.0 0.00 0.00 0.00 54 1011.8
20260509040057 64 30 0.0 0.0 0.00 0.00 0.00 54 1011.8
20260509035911 65 355 0.0 0.0 0.00 0.00 0.00 54 1011.8
20260509035528 64 22 0.0 0.0 0.00 0.00 0.00 53 1011.8
20260509035403 65 29 0.0 0.0 0.00 0.00 0.00 53 1011.8
20260509035058 64 350 0.0 0.0 0.00 0.00 0.00 53 1011.8
20260509034921 65 5 0.0 0.0 0.00 0.00 0.00 53 1011.8
20260509034539 65 27 0.0 0.0 0.00 0.00 0.00 53 1011.7
20260509034415 65 28 0.0 0.0 0.00 0.00 0.00 52 1011.6
20260509034057 65 30 0.0 0.0 0.00 0.00 0.00 52 1011.6
20260509033910 65 15 0.0 0.0 0.00 0.00 0.00 52 1011.6
20260509033532 65 18 0.0 0.0 0.00 0.00 0.00 52 1011.5
20260509033406 65 15 0.0 0.0 0.00 0.00 0.00 52 1011.5
20260509033011 65 26 0.0 0.0 0.00 0.00 0.00 52 1011.4
20260509032934 65 18 0.0 0.0 0.00 0.00 0.00 52 1011.6
20260509032526 65 19 0.0 0.0 0.00 0.00 0.00 52 1011.4
20260509032409 66 360 0.0 0.0 0.00 0.00 0.00 52 1011.4
20260509032053 65 13 0.0 0.0 0.00 0.00 0.00 51 1011.4
20260509032007 65 22 0.0 0.0 0.00 0.00 0.00 51 1011.4
20260509031927 66 30 0.0 0.0 0.00 0.00 0.00 51 1011.4
20260509031511 65 44 0.0 0.0 0.00 0.00 0.00 51 1011.3
20260509031425 66 9 0.0 0.0 0.00 0.00 0.00 51 1011.4
20260509031032 66 5 0.0 0.0 0.00 0.00 0.00 51 1011.3
20260509030902 66 27 0.0 0.0 0.00 0.00 0.00 51 1011.3
20260509030509 66 349 0.0 0.0 0.00 0.00 0.00 50 1011.3
20260509030402 66 344 0.0 0.0 0.00 0.00 0.00 50 1011.2
20260509030053 66 22 0.0 0.0 0.00 0.00 0.00 50 1011.3
20260509025909 67 18 0.0 0.0 0.00 0.00 0.00 50 1011.3
20260509025601 66 18 0.0 0.0 0.00 0.00 0.00 50 1011.2
20260509025359 67 5 0.0 0.0 0.00 0.00 0.00 49 1011.2
20260509025025 66 9 0.0 0.0 0.00 0.00 0.00 49 1011.2
20260509024923 67 45 0.0 0.0 0.00 0.00 0.00 49 1011.2
20260509024601 67 5 0.0 0.0 0.00 0.00 0.00 49 1011.2
20260509024415 67 233 0.0 0.0 0.00 0.00 0.00 49 1011.2
20260509024032 67 233 0.0 0.0 0.00 0.00 0.00 49 1011.1
20260509023907 68 233 0.0 0.0 0.00 0.00 0.00 49 1011.1
20260509023556 67 233 0.0 0.0 0.00 0.00 0.00 49 1011.1
20260509023358 68 233 0.0 0.0 0.00 0.00 0.00 49 1011.1
20260509023032 67 233 0.0 0.0 0.00 0.00 0.00 48 1011.0
20260509022919 68 233 0.0 0.0 0.00 0.00 0.00 48 1011.0
20260509022559 67 233 0.0 0.0 0.00 0.00 0.00 49 1011.0
20260509022411 68 233 0.0 0.0 0.00 0.00 0.00 49 1011.0
20260509022032 67 233 0.0 0.0 0.00 0.00 0.00 49 1011.1
20260509021903 68 233 0.0 0.0 0.00 0.00 0.00 48 1011.1
20260509021502 67 233 0.0 0.0 0.00 0.00 0.00 48 1011.0
20260509021422 68 233 0.0 0.0 0.00 0.00 0.00 48 1011.1
20260509021034 67 233 0.0 0.0 0.00 0.00 0.00 48 1011.1
20260509020914 68 233 0.0 0.0 0.00 0.00 0.00 48 1011.2
20260509020507 67 233 0.0 0.0 0.00 0.00 0.00 48 1011.1
20260509020413 68 233 0.0 0.0 0.00 0.00 0.00 48 1011.1
20260509020018 67 233 0.0 0.0 0.00 0.00 0.00 48 1011.1
20260509015936 68 233 0.0 0.0 0.00 0.00 0.00 48 1011.2
20260509015530 67 233 0.0 0.0 0.00 0.00 0.00 47 1011.1
20260509015435 68 233 0.0 0.0 0.00 0.00 0.00 47 1011.2
20260509015044 67 233 0.0 0.0 0.00 0.00 0.00 47 1011.1
20260509014920 68 232 0.0 0.0 0.00 0.00 0.00 48 1011.1
20260509014557 67 232 0.0 0.0 0.00 0.00 0.00 48 1011.1
20260509014408 68 233 0.0 0.0 0.00 0.00 0.00 48 1011.1
20260509014027 67 233 0.0 0.0 0.00 0.00 0.00 48 1011.1
20260509013928 67 233 0.0 0.0 0.00 0.00 0.00 48 1011.1
20260509013551 67 233 0.0 0.0 0.00 0.00 0.00 48 1011.1
20260509013426 67 232 0.0 0.0 0.00 0.00 0.00 48 1011.2
20260509013058 67 233 0.0 0.0 0.00 0.00 0.00 48 1011.1
20260509012905 68 232 0.0 0.0 0.00 0.00 0.00 48 1011.2
20260509012559 67 232 0.0 0.0 0.00 0.00 0.00 48 1011.2
20260509012400 68 233 0.0 0.0 0.00 0.00 0.00 47 1011.3
20260509012031 68 233 0.0 0.0 0.00 0.00 0.00 47 1011.2
20260509011921 68 233 0.0 0.0 0.00 0.00 0.00 47 1011.3
20260509011601 68 227 0.0 0.0 0.00 0.00 0.00 47 1011.3
20260509011411 68 227 0.0 0.0 0.00 0.00 0.00 47 1011.3
20260509011037 68 227 0.0 0.0 0.00 0.00 0.00 46 1011.3
20260509010933 69 227 0.0 0.0 0.00 0.00 0.00 46 1011.4
20260509010549 68 226 0.0 0.0 0.00 0.00 0.00 46 1011.3
20260509010404 69 239 0.0 0.0 0.00 0.00 0.00 46 1011.3
20260509010031 68 226 0.0 0.0 0.00 0.00 0.00 46 1011.3
20260509005923 69 225 0.0 0.0 0.00 0.00 0.00 46 1011.4
20260509005538 68 36 0.0 0.0 0.00 0.00 0.00 46 1011.3
20260509005357 69 80 0.0 0.0 0.00 0.00 0.00 46 1011.4
20260509005007 68 80 0.0 0.0 0.00 0.00 0.00 46 1011.3
20260509004919 68 80 0.0 0.0 0.00 0.00 0.00 46 1011.4
20260509004538 68 80 0.0 0.0 0.00 0.00 0.00 46 1011.4
20260509004411 68 80 0.0 0.0 0.00 0.00 0.00 46 1011.4
20260509004010 67 57 0.0 0.0 0.00 0.00 0.00 46 1011.4
20260509003940 68 19 0.0 0.0 0.00 0.00 0.00 46 1011.5
20260509003515 68 360 0.0 0.0 0.00 0.00 0.00 45 1011.5
20260509003411 69 5 0.0 0.0 0.00 0.00 0.00 45 1011.4
20260509003045 69 14 0.0 0.0 0.00 0.00 0.00 45 1011.4
20260509002906 69 200 0.0 0.0 0.00 0.00 0.00 45 1011.4
20260509002518 68 275 0.0 0.0 0.00 0.00 0.00 45 1011.4
20260509002426 69 275 0.0 0.0 0.00 0.00 0.00 45 1011.4
20260509002045 68 275 0.0 0.0 0.00 0.00 0.00 45 1011.4
20260509001916 69 261 0.0 0.0 0.00 0.00 0.00 46 1011.5
20260509001505 68 41 0.0 0.0 0.00 0.00 0.00 45 1011.5
20260509001407 69 22 0.0 0.0 0.00 0.00 0.00 45 1011.5
20260509001039 68 254 0.0 0.0 0.00 0.00 0.00 46 1011.5
20260509000858 68 254 0.0 0.0 0.00 0.00 0.00 46 1011.6
20260509000521 68 232 0.0 0.0 0.00 0.00 0.00 46 1011.5
20260509000425 68 236 0.0 0.0 0.00 0.00 0.00 46 1011.6
20260509000029 68 212 0.0 0.0 0.00 0.00 0.00 46 1011.5
20260508235924 68 217 0.0 0.0 0.00 0.00 0.00 46 1011.6
20260508235501 68 213 0.0 0.0 0.00 0.00 0.00 45 1011.6
20260508235419 68 235 0.0 0.0 0.00 0.00 0.00 45 1011.7
20260508235037 68 227 0.0 0.0 0.00 0.00 0.00 46 1011.7
20260508234909 68 250 0.0 0.0 0.00 0.00 0.00 46 1011.6
20260508234606 68 236 0.0 0.0 0.00 0.00 0.00 46 1011.5
20260508234402 68 246 0.0 0.0 0.00 0.00 0.00 46 1011.6
20260508234033 67 178 0.0 0.0 0.00 0.00 0.00 46 1011.5
20260508233921 68 178 0.0 0.0 0.00 0.00 0.00 46 1011.6
20260508233505 67 212 0.0 0.0 0.00 0.00 0.00 46 1011.6
20260508233417 68 204 0.0 0.0 0.00 0.00 0.00 46 1011.6
20260508233019 67 216 0.0 0.0 0.00 0.00 0.00 46 1011.6
20260508232915 68 211 0.0 0.0 0.00 0.00 0.00 46 1011.7
20260508232559 67 178 0.0 0.0 0.00 0.00 0.00 46 1011.7
20260508232408 67 232 0.0 0.0 0.00 0.00 0.00 46 1011.7
20260508232031 66 235 0.0 0.0 0.00 0.00 0.00 47 1011.7
20260508231935 67 202 0.0 0.0 0.00 0.00 0.00 47 1011.7
20260508231544 66 120 0.0 0.0 0.00 0.00 0.00 47 1011.6
20260508231409 66 110 0.0 0.0 0.00 0.00 0.00 46 1011.7
20260508231012 66 109 0.0 0.0 0.00 0.00 0.00 46 1011.7
20260508230909 67 109 0.0 0.0 0.00 0.00 0.00 46 1011.7
20260508230520 67 198 0.0 0.0 0.00 0.00 0.00 45 1011.7
20260508230430 67 198 0.0 0.0 0.00 0.00 0.00 46 1011.8
20260508230041 67 238 0.0 0.0 0.00 0.00 0.00 46 1011.7
20260508225919 68 217 0.0 0.0 0.00 0.00 0.00 45 1011.7
20260508225549 67 247 0.0 0.0 0.00 0.00 0.00 46 1011.7
20260508225406 67 247 0.0 0.0 0.00 0.00 0.00 46 1011.8
20260508225025 66 229 0.0 0.0 0.00 0.00 0.00 45 1011.8
20260508224913 67 229 0.0 0.0 0.00 0.00 0.00 46 1011.8
20260508224548 66 245 0.0 0.0 0.00 0.00 0.00 46 1011.8
20260508224406 66 316 0.0 0.0 0.00 0.00 0.00 46 1011.8
20260508224014 66 238 0.0 0.0 0.00 0.00 0.00 46 1011.7
20260508223928 66 215 0.0 0.0 0.00 0.00 0.00 46 1011.8
20260508223529 65 208 0.0 0.0 0.00 0.00 0.00 46 1011.8
20260508223405 66 213 0.0 0.0 0.00 0.00 0.00 46 1011.9
20260508223059 66 230 0.0 0.0 0.00 0.00 0.00 46 1011.9
20260508222924 66 192 0.0 0.0 0.00 0.00 0.00 46 1011.9
20260508222521 66 195 0.0 0.0 0.00 0.00 0.00 45 1011.8
20260508222358 67 195 0.0 0.0 0.00 0.00 0.00 45 1011.9
20260508222042 66 199 0.0 0.0 0.00 0.00 0.00 45 1011.9
20260508221923 66 215 0.0 0.0 0.00 0.00 0.00 46 1012.0
20260508221554 65 249 0.0 0.0 0.00 0.00 0.00 46 1012.0
20260508221424 66 248 0.0 0.0 0.00 0.00 0.00 46 1012.1
20260508221017 65 208 0.0 0.0 0.00 0.00 0.00 46 1012.0
20260508220918 66 244 0.0 0.0 0.00 0.00 0.00 46 1012.0
20260508220540 65 220 0.0 0.0 0.00 0.00 0.00 47 1012.0
20260508220400 65 232 0.0 0.0 0.00 0.00 0.00 46 1012.0
20260508220021 65 215 0.0 0.0 0.00 0.00 0.00 46 1012.1
20260508215927 65 209 0.0 0.0 0.00 0.00 0.00 45 1012.1
20260508215553 65 259 0.0 0.0 0.00 0.00 0.00 45 1012.0
20260508215419 66 247 0.0 0.0 0.00 0.00 0.00 46 1012.0
20260508215019 65 200 0.0 0.0 0.00 0.00 0.00 46 1012.0
20260508214914 65 290 0.0 0.0 0.00 0.00 0.00 45 1012.0
20260508214607 65 38 0.0 0.0 0.00 0.00 0.00 45 1012.0
20260508214409 66 304 0.0 0.0 0.00 0.00 0.00 45 1012.0
20260508214027 65 230 0.0 0.0 0.00 0.00 0.00 45 1012.0
20260508213903 65 245 0.0 0.0 0.00 0.00 0.00 44 1012.0
20260508213559 65 253 0.0 0.0 0.00 0.00 0.00 45 1012.0
20260508213432 65 253 0.0 0.0 0.00 0.00 0.00 45 1012.0
20260508213007 64 217 0.0 0.0 0.00 0.00 0.00 45 1012.1
20260508212859 64 235 0.0 0.0 0.00 0.00 0.00 45 1012.1
20260508212534 64 215 0.0 0.0 0.00 0.00 0.00 45 1012.0
20260508212423 64 223 0.0 0.0 0.00 0.00 0.00 45 1012.1
20260508212048 64 235 0.0 0.0 0.00 0.00 0.00 45 1012.0
20260508211916 64 171 0.0 0.0 0.00 0.00 0.00 46 1012.1
20260508211510 63 121 0.0 0.0 0.00 0.00 0.00 46 1012.0
20260508211400 63 121 0.0 0.0 0.00 0.00 0.00 46 1012.1
20260508211053 63 113 0.0 0.0 0.00 0.00 0.00 46 1012.1
20260508210924 64 113 0.0 0.0 0.00 0.00 0.00 46 1012.1
20260508210513 63 215 0.0 0.0 0.00 0.00 0.00 46 1012.0
20260508210412 64 196 0.0 0.0 0.00 0.00 0.00 46 1012.0
20260508210046 63 193 0.0 0.0 0.00 0.00 0.00 46 1012.0
20260508205906 63 234 0.0 0.0 0.00 0.00 0.00 46 1012.1
20260508205511 63 295 0.0 0.0 0.00 0.00 0.00 45 1012.1
20260508205402 63 294 0.0 0.0 0.00 0.00 0.00 45 1012.1
20260508205049 63 265 0.0 0.0 0.00 0.00 0.00 45 1012.1
20260508204921 64 202 0.0 0.0 0.00 0.00 0.00 44 1012.1
20260508204602 63 184 0.0 0.0 0.00 0.00 0.00 45 1012.1
20260508204422 64 202 0.0 0.0 0.00 0.00 0.00 45 1012.2
20260508204034 63 208 0.0 0.0 0.00 0.00 0.00 46 1012.1
20260508203912 63 238 0.0 0.0 0.00 0.00 0.00 45 1012.1
20260508203601 62 250 0.0 0.0 0.00 0.00 0.00 45 1012.1
20260508203407 63 215 0.0 0.0 0.00 0.00 0.00 45 1012.2
20260508203029 62 165 0.0 0.0 0.00 0.00 0.00 45 1012.2
20260508202901 63 163 0.0 0.0 0.00 0.00 0.00 45 1012.2
20260508202505 62 164 0.0 0.0 0.00 0.00 0.00 44 1012.2
20260508202421 63 171 0.0 0.0 0.00 0.00 0.00 44 1012.2
20260508202037 62 168 0.0 0.0 0.00 0.00 0.00 45 1012.2
20260508201910 63 172 0.0 0.0 0.00 0.00 0.00 45 1012.3
20260508201501 62 181 0.0 0.0 0.00 0.00 0.00 45 1012.2
20260508201404 62 215 0.0 0.0 0.00 0.00 0.00 45 1012.2
20260508201038 62 228 0.0 0.0 0.00 0.00 0.00 45 1012.2
20260508200925 62 248 0.0 0.0 0.00 0.00 0.00 45 1012.3
20260508200503 62 23 0.0 0.0 0.00 0.00 0.00 44 1012.3
20260508200420 62 344 0.0 0.0 0.00 0.00 0.00 44 1012.3
20260508200042 62 234 0.0 0.0 0.00 0.00 0.00 44 1012.3
20260508195911 62 175 0.0 0.0 0.00 0.00 0.00 45 1012.4
20260508195559 62 258 0.0 0.0 0.00 0.00 0.00 45 1012.3
20260508195403 62 258 0.0 0.0 0.00 0.00 0.00 44 1012.4
20260508195035 61 233 0.0 0.0 0.00 0.00 0.00 45 1012.4
20260508194857 62 237 0.0 0.0 0.00 0.00 0.00 45 1012.4
20260508194503 61 182 0.0 0.0 0.00 0.00 0.00 44 1012.5
20260508194421 62 175 0.0 0.0 0.00 0.00 0.00 44 1012.5
20260508194039 61 232 0.0 0.0 0.00 0.00 0.00 44 1012.5
20260508193916 61 234 0.0 0.0 0.00 0.00 0.00 44 1012.5
20260508193507 61 213 0.0 0.0 0.00 0.00 0.00 43 1012.4
20260508193410 62 214 0.0 0.0 0.00 0.00 0.00 43 1012.4
20260508193051 61 209 0.0 0.0 0.00 0.00 0.00 44 1012.4
20260508192900 61 188 0.0 0.0 0.00 0.00 0.00 44 1012.4
20260508192515 61 244 0.0 0.0 0.00 0.00 0.00 44 1012.4
20260508192426 61 232 0.0 0.0 0.00 0.00 0.00 44 1012.4
20260508192045 60 222 0.0 0.0 0.00 0.00 0.00 43 1012.3
20260508191857 61 224 0.0 0.0 0.00 0.00 0.00 43 1012.4
20260508191555 60 238 0.0 0.0 0.00 0.00 0.00 43 1012.3
20260508191418 61 155 0.0 0.0 0.00 0.00 0.00 43 1012.4
20260508191013 60 188 0.0 0.0 0.00 0.00 0.00 42 1012.5
20260508190913 61 194 0.0 0.0 0.00 0.00 0.00 42 1012.6
20260508190545 60 211 0.0 0.0 0.00 0.00 0.00 42 1012.5
20260508190404 61 186 0.0 0.0 0.00 0.00 0.00 42 1012.5
20260508190036 60 193 0.0 0.0 0.00 0.00 0.00 42 1012.5
20260508185855 60 183 0.0 0.0 0.00 0.00 0.00 42 1012.5
20260508185555 60 202 0.0 0.0 0.00 0.00 0.00 41 1012.5
20260508185421 60 213 0.0 0.0 0.00 0.00 0.00 41 1012.6
20260508185001 59 189 0.0 0.0 0.00 0.00 0.00 42 1012.6
20260508184915 59 223 0.0 0.0 0.00 0.00 0.00 42 1012.6
20260508184536 58 227 0.0 0.0 0.00 0.00 0.00 43 1012.6
20260508184414 58 235 0.0 0.0 0.00 0.00 0.00 43 1012.6
20260508184005 58 223 0.0 0.0 0.00 0.00 0.00 43 1012.6
20260508183913 58 238 0.0 0.0 0.00 0.00 0.00 42 1012.6
20260508183537 58 226 0.0 0.0 0.00 0.00 0.00 43 1012.5
20260508183409 58 243 0.0 0.0 0.00 0.00 0.00 42 1012.5
20260508183007 57 235 0.0 0.0 0.00 0.00 0.00 42 1012.6
20260508182858 58 250 0.0 0.0 0.00 0.00 0.00 42 1012.6
20260508182543 57 210 0.0 0.0 0.00 0.00 0.00 42 1012.6
20260508182358 58 231 0.0 0.0 0.00 0.00 0.00 42 1012.6
20260508182017 58 223 0.0 0.0 0.00 0.00 0.00 42 1012.5
20260508181922 58 192 0.0 0.0 0.00 0.00 0.00 42 1012.5
20260508181551 57 227 0.0 0.0 0.00 0.00 0.00 42 1012.5
20260508181414 58 216 0.0 0.0 0.00 0.00 0.00 42 1012.5
20260508181015 57 254 0.0 0.0 0.00 0.00 0.00 41 1012.4
20260508180907 58 262 0.0 0.0 0.00 0.00 0.00 41 1012.4
20260508180556 57 227 0.0 0.0 0.00 0.00 0.00 41 1012.4
20260508180411 58 229 0.0 0.0 0.00 0.00 0.00 40 1012.4
20260508175900 58 188 0.0 0.0 0.00 0.00 0.00 39 1012.4
20260508175527 58 206 0.0 0.0 0.00 0.00 0.00 38 1012.3
20260508175422 58 215 0.0 0.0 0.00 0.00 0.00 38 1012.3
20260508175102 58 215 0.0 0.0 0.00 0.00 0.00 38 1012.3
20260508174913 58 216 0.0 0.0 0.00 0.00 0.00 37 1012.3
20260508174542 58 240 0.0 0.0 0.00 0.00 0.00 35 1012.2
20260508174402 58 215 0.0 0.0 0.00 0.00 0.00 35 1012.2
20260508174059 57 217 0.0 0.0 0.00 0.00 0.00 35 1012.2
20260508173857 57 207 0.0 0.0 0.00 0.00 0.00 35 1012.2
20260508173541 56 254 0.0 0.0 0.00 0.00 0.00 35 1012.2
20260508173420 56 171 0.0 0.0 0.00 0.00 0.00 35 1012.2
20260508173051 56 239 0.0 0.0 0.00 0.00 0.00 34 1012.1
20260508172920 56 224 0.0 0.0 0.00 0.00 0.00 33 1012.2
20260508172511 55 159 0.0 0.0 0.00 0.00 0.00 32 1012.1
20260508172414 56 155 0.0 0.0 0.00 0.00 0.00 33 1012.1
20260508172048 55 219 0.0 0.0 0.00 0.00 0.00 33 1012.0
20260508171904 55 209 0.0 0.0 0.00 0.00 0.00 34 1012.0
20260508171518 55 234 0.0 0.0 0.00 0.00 0.00 33 1011.9
20260508171424 56 240 0.0 0.0 0.00 0.00 0.00 33 1011.9
20260508171049 55 223 0.0 0.0 0.00 0.00 0.00 33 1011.9
20260508170908 56 222 0.0 0.0 0.00 0.00 0.00 33 1011.9
20260508170507 55 265 0.0 0.0 0.00 0.00 0.00 33 1011.7
20260508170404 55 273 0.0 0.0 0.00 0.00 0.00 32 1011.7
20260508170049 55 235 0.0 0.0 0.00 0.00 0.00 30 1011.7
20260508165923 55 241 0.0 0.0 0.00 0.00 0.00 30 1011.8
20260508165552 55 241 0.0 0.0 0.00 0.00 0.00 30 1011.7
20260508165357 55 232 0.0 0.0 0.00 0.00 0.00 30 1011.7
20260508165032 54 229 0.0 0.0 0.00 0.00 0.00 30 1011.6
20260508164856 55 227 0.0 0.0 0.00 0.00 0.00 30 1011.6
20260508164510 54 235 0.0 0.0 0.00 0.00 0.00 30 1011.3
20260508164418 55 234 0.0 0.0 0.00 0.00 0.00 30 1011.4
20260508164036 54 189 0.0 0.0 0.00 0.00 0.00 29 1011.3
20260508163913 55 190 0.0 0.0 0.00 0.00 0.00 29 1011.3
20260508163504 54 189 0.0 0.0 0.00 0.00 0.00 29 1011.2
20260508163409 54 189 0.0 0.0 0.00 0.00 0.00 30 1011.3
20260508163037 54 190 0.0 0.0 0.00 0.00 0.00 29 1011.3
20260508162903 55 186 0.0 0.0 0.00 0.00 0.00 29 1011.4
20260508162559 54 169 0.0 0.0 0.00 0.00 0.00 29 1011.3
20260508162401 54 169 0.0 0.0 0.00 0.00 0.00 29 1011.4
20260508162033 54 184 0.0 0.0 0.00 0.00 0.00 28 1011.3
20260508161924 54 210 0.0 0.0 0.00 0.00 0.00 28 1011.5
20260508161551 54 220 0.0 0.0 0.00 0.00 0.00 29 1011.4
20260508161425 54 238 0.0 0.0 0.00 0.00 0.00 28 1011.4
20260508161011 54 191 0.0 0.0 0.00 0.00 0.00 27 1011.1
20260508160911 54 155 0.0 0.0 0.00 0.00 0.00 27 1011.2
20260508160541 54 198 0.0 0.0 0.00 0.00 0.00 28 1011.2
20260508160403 54 207 0.0 0.0 0.00 0.00 0.00 28 1011.2
20260508160007 54 194 0.0 0.0 0.00 0.00 0.00 29 1011.2
20260508155857 54 194 0.0 0.0 0.00 0.00 0.00 28 1011.2
20260508155545 54 231 0.0 0.0 0.00 0.00 0.00 28 1011.2
20260508155357 54 241 0.0 0.0 0.00 0.00 0.00 27 1011.2
20260508155015 54 221 0.0 0.0 0.00 0.00 0.00 27 1011.2
20260508154918 54 227 0.0 0.0 0.00 0.00 0.00 27 1011.3
20260508154548 54 244 0.0 0.0 0.00 0.00 0.00 26 1011.3
20260508154407 54 190 0.0 0.0 0.00 0.00 0.00 25 1011.3
20260508154020 54 186 0.0 0.0 0.00 0.00 0.00 24 1011.2